Weather History for Myrtle Beach, SC

Change the Weather History Date:

Tuesday, April 1, 2014

  Actual Average Record
Temperature  
Mean Temperature 56 °F -  
Max Temperature 69 °F 67 °F 83 °F (1953)
Min Temperature 44 °F 48 °F 32 °F (1950)
Degree Days  
Heating Degree Days 8    
Growing Degree Days 6 (Base 50)    
Moisture  
Dew Point 43 °F    
Average Humidity 68    
Maximum Humidity 93    
Minimum Humidity 14    
Precipitation  
Precipitation 0.00 in - - ()
Sea Level Pressure  
Sea Level Pressure 30.11 in    
Wind  
Wind Speed 3 mph (SSW)    
Max Wind Speed 20 mph    
Max Gust Speed -    
Visibility 10 miles    
Events      
Averages and records for this station are not official NWS values.
T = Trace of Precipitation, MM = Missing Value Source: NWS Daily Summary

Daily Weather History Graph

Daily Weather History Graph

Search for Another Location

Airport:

Trip Planner

Search our weather history database for the weather conditions in past years. The results will help you decide how hot, cold, wet, or windy it might be!

Date:

Astronomy

Apr. 01, 2014 Rise Set
Actual Time 7:03 AM EDT 7:36 PM EDT
Civil Twilight 6:38 AM EDT 8:01 PM EDT
Nautical Twilight 6:08 AM EDT 8:30 PM EDT
Astronomical Twilight 5:38 AM EDT 9:01 PM EDT
Moon 8:10 AM EDT (4/1) 9:50 PM EDT (4/1)
Length of Visible Light 13h 23m
Length of Day
12h 33m
Waxing Crescent, 4% of the Moon is Illuminated
Apr 1
Waxing Crescent
Apr 7
First Quarter
Apr 15
Full
Apr 22
Last Quarter
Apr 29
New

Hourly Weather History & Observations

Time (EDT) Temp. Dew Point Humidity Pressure Visibility Wind Dir Wind Speed Gust Speed Precip Events Conditions
12:15 AM 50.0 °F 44.6 °F 82% 30.12 in 5.0 mi Calm Calm - N/A   Clear
12:35 AM 50.0 °F 44.6 °F 82% 30.13 in 10.0 mi Calm Calm - N/A   Clear
12:55 AM 48.2 °F 44.6 °F 87% 30.12 in 10.0 mi Calm Calm - N/A   Clear
1:15 AM 46.4 °F 42.8 °F 87% 30.12 in 10.0 mi Calm Calm - N/A   Clear
1:35 AM 48.2 °F 44.6 °F 87% 30.12 in 10.0 mi Calm Calm - N/A   Clear
1:55 AM 46.4 °F 42.8 °F 87% 30.12 in 10.0 mi Calm Calm - N/A   Clear
2:15 AM 48.2 °F 42.8 °F 82% 30.11 in 10.0 mi Calm Calm - N/A   Clear
2:35 AM 46.4 °F 42.8 °F 87% 30.11 in 10.0 mi Calm Calm - N/A   Clear
2:55 AM 46.4 °F 42.8 °F 87% 30.11 in 10.0 mi Calm Calm - N/A   Clear
3:15 AM 46.4 °F 42.8 °F 87% 30.11 in 10.0 mi Calm Calm - N/A   Clear
3:35 AM 46.4 °F 42.8 °F 87% 30.11 in 10.0 mi Calm Calm - N/A   Clear
3:55 AM 44.6 °F 42.8 °F 93% 30.10 in 10.0 mi Calm Calm - N/A   Clear
4:15 AM 44.6 °F 41.0 °F 87% 30.10 in 10.0 mi Calm Calm - N/A   Clear
4:35 AM 46.4 °F 42.8 °F 87% 30.10 in 10.0 mi Calm Calm - N/A   Clear
4:55 AM 46.4 °F 42.8 °F 87% 30.10 in 10.0 mi Calm Calm - N/A   Clear
5:15 AM 44.6 °F 39.2 °F 81% 30.11 in 10.0 mi Calm Calm - N/A   Clear
5:35 AM 44.6 °F 42.8 °F 93% 30.11 in 10.0 mi Calm Calm - N/A   Clear
5:45 AM 46.4 °F 42.8 °F 87% 30.12 in 10.0 mi Calm Calm - N/A   Clear
5:55 AM 44.6 °F 42.8 °F 93% 30.11 in 10.0 mi Calm Calm - N/A   Clear
6:45 AM 46.4 °F 42.8 °F 87% 30.13 in 10.0 mi Calm Calm - N/A   Clear
7:45 AM 48.2 °F 42.8 °F 82% 30.16 in 10.0 mi Calm Calm - N/A   Clear
8:50 AM 57.2 °F 42.8 °F 59% 30.16 in 10.0 mi SW 5.8 mph - N/A   Clear
9:45 AM 62.6 °F 44.6 °F 52% 30.17 in 10.0 mi WSW 5.8 mph - N/A   Clear
10:47 AM 69.8 °F 44.6 °F 40% 30.17 in 10.0 mi SW 8.1 mph - N/A   Clear
11:47 AM 64.4 °F 48.2 °F 56% 30.16 in 10.0 mi SSE 11.5 mph - N/A   Clear
12:45 PM 69.8 °F 17.6 °F 14% 30.15 in 10.0 mi South 11.5 mph - N/A   Clear
1:50 PM 68.0 °F 48.2 °F 49% 30.13 in 10.0 mi South 12.7 mph - N/A   Clear
2:47 PM 69.8 °F 46.4 °F 43% 30.10 in 10.0 mi South 17.3 mph - N/A   Partly Cloudy
3:45 PM 69.8 °F 46.4 °F 43% 30.08 in 10.0 mi SSW 19.6 mph - N/A   Clear
4:45 PM 68.0 °F 46.4 °F 46% 30.06 in 10.0 mi South 18.4 mph - N/A   Clear
5:45 PM 68.0 °F 51.8 °F 56% 30.06 in 10.0 mi South 15.0 mph - N/A   Clear
6:47 PM 66.2 °F 51.8 °F 60% 30.06 in 10.0 mi SSW 12.7 mph - N/A   Clear
7:50 PM 66.2 °F 46.4 °F 49% 30.08 in 10.0 mi SSW 10.4 mph - N/A   Clear
8:45 PM 66.2 °F 42.8 °F 43% 30.09 in 10.0 mi SW 13.8 mph - N/A   Clear
9:45 PM 64.4 °F 39.2 °F 40% 30.10 in 10.0 mi SW 11.5 mph - N/A   Clear
11:15 PM 64.4 °F 37.4 °F 37% 30.11 in 10.0 mi SW 8.1 mph - N/A   Clear
11:35 PM 64.4 °F 37.4 °F 37% 30.11 in 10.0 mi SW 6.9 mph - N/A   Clear
11:55 PM 62.6 °F 39.2 °F 42% 30.11 in 10.0 mi SW 8.1 mph - N/A   Clear